User: anonymous   Login
Location: New Frontier Mobile Home Park
(32.8448°N, 116.9675°W)
Time: 21:03:00
(UTC+00:00)
Language:

Meteor 1-23 Rocket - Orbit

View from above orbital plane
View from above orbital plane
View from above satellite
View from above satellite

Ground track
Ground track

The orbit data is extracted from the following two-line orbital elements,

1  8520U 75124B   20270.50111000 -.00000016  00000-0 -16875-4 0  9993
2  8520  81.2868  90.3938 0036485 156.5678 203.7165 14.08996887299808
Epoch (UTC): 26 September 2020 12:01:35
Eccentricity: 0.0036485
inclination: 81.2868°
perigee height: 836 km
apogee height: 889 km
right ascension of ascending node: 90.3938°
argument of perigee: 156.5678°
revolutions per day: 14.08996887
mean anomaly at epoch: 203.7165°
orbit number at epoch: 29980

The dashed part of the orbit path shows where the satellite is in the earth's shadow,  

DLR